Flag for US Virgin Islands Weather past 2 weeks in Christiansted, US Virgin Islands

Now
79 °F

Sunny.


Feels Like: 83 °F
Forecast: 77 / 87 °F
Wind: No wind

Location: Christiansted / Henry E. Rohlsen Airport - Saint Croix

Current Time: Sep 3, 2015 at 7:43:32 AM

Latest Report: Sep 3, 2015 at 6:53 AM


Visibility: 10 mi

Pressure: 29.98 "Hg

Humidity: 88%

Dew point: 75 °F

Location of ChristianstedLocation

Historic Weather in Christiansted — Graph

°F

Christiansted temperature yesterday

Maximum temperature yesterday: 88 °F (at 12:53 PM)
Minimum temperature yesterday: 78 °F (at 11:53 PM)
Average temperature yesterday: 83 °F

Past Weeks' High & Low Weather Summary

 TemperatureHumidityPressure
High93 °F (Aug 26, 12:53 PM)100% (Aug 27, 9:19 PM)30.06 "Hg (Aug 27, 9:19 PM)
Low76 °F (Aug 23, 1:53 AM)54% (Aug 24, 9:53 AM)29.72 "Hg (Aug 27, 7:53 PM)
Average83 °F78%29.96 "Hg
* Reported Aug 19 5:53 AM — Sep 3 5:53 AM, Christiansted, Weather by CustomWeather, © 2015

Note: Actual official high and low records may vary slightly from our data, if they occured in-between our weather recording intervals... More about our weather records

Advertising

Christiansted weather history for previous 24 hours

 ConditionsComfort  
Time TempWeatherWind HumidityBarometerVisibility
5:53 AM
Thu, Sep 3
77 °FPassing clouds.3 mph90%29.96 "Hg10 mi
5:35 AM77 °FPassing clouds.5 mph90%29.97 "Hg10 mi
4:53 AM78 °FPassing clouds.5 mph90%29.96 "Hg10 mi
3:53 AM77 °FPassing clouds.3 mph94%29.96 "Hg10 mi
2:53 AM77 °FPassing clouds.5 mph94%29.95 "Hg10 mi
1:53 AM78 °FPassing clouds.5 mph90%29.96 "Hg10 mi
12:53 AM78 °FPassing clouds.5 mph90%29.97 "Hg10 mi
11:53 PM
Wed, Sep 2
78 °FClear.No wind90%29.98 "Hg10 mi
10:53 PM79 °FClear.No wind90%30.00 "Hg10 mi
9:53 PM80 °FClear.3 mph87%30.00 "Hg10 mi
8:53 PM80 °FClear.3 mph87%30.00 "Hg10 mi
7:53 PM82 °FClear.5 mph82%29.98 "Hg10 mi
6:53 PM83 °FPassing clouds.7 mph79%29.98 "Hg10 mi
5:53 PM84 °FPassing clouds.9 mph77%29.97 "Hg10 mi
4:53 PM86 °FPassing clouds.7 mph72%29.97 "Hg10 mi
3:53 PM87 °FScattered clouds.10 mph72%29.97 "Hg10 mi
2:53 PM87 °FScattered clouds.8 mph72%29.97 "Hg10 mi
1:53 PM87 °FPassing clouds.9 mph72%30.00 "Hg10 mi
12:53 PM88 °FScattered clouds.10 mph70%30.02 "Hg10 mi
11:53 AM87 °FScattered clouds.8 mph72%30.04 "Hg10 mi
10:53 AM87 °FPassing clouds.12 mph72%30.05 "Hg10 mi
9:53 AM87 °FPassing clouds.13 mph72%30.04 "Hg10 mi
8:53 AM86 °FScattered clouds.9 mph75%30.04 "Hg10 mi
7:53 AM85 °FScattered clouds.8 mph80%30.03 "Hg10 mi
Weather by CustomWeather, © 2015

See weather overviewHow to use our weather pages